Location: Baggettsville
(36.4767°N, 86.7303°W)
Time: 08:02:54
(UTC+00:00)

Cosmos 1300 - Pass Details

Date: 29 October 2020
Orbit: 511 x 514 km, 82.5° (Epoch: 04 December)

Event Time Altitude Azimuth Distance (km) Brightness Sun altitude
Rises 23:21:42 0° 193° (SSW) 2,612 6.6 -6.4°
Reaches altitude 10° 23:23:50 10° 197° (SSW) 1,731 5.8 -6.9°
Maximum altitude 23:27:35 61° 278° (W) 587 3.3 -7.6°
Drops below altitude 10° 23:31:22 10° 359° (N) 1,745 5.3 -8.3°
Sets 23:33:32 0° 3° (N) 2,636 6.1 -8.8°
